User: anonymous   Login
Location: Unspecified
(0.0000°N, 0.0000°E)
Time: 12:44:12
(UTC+00:00)
Language:

TOMSK-TPU 120 - Orbit

View from above orbital plane
View from above orbital plane
View from above satellite
View from above satellite

Ground track
Ground track

The orbit data is extracted from the following two-line orbital elements,

1 42910U 98067MZ  18348.08948010  .00021745  00000-0  17500-3 0  9995
2 42910  51.6350 171.1574 0006191 167.0940 284.3076 15.70851998 75597
Epoch (UTC): 14 December 2018 02:08:51
Eccentricity: 0.0006191
inclination: 51.6350°
perigee height: 352 km
apogee height: 360 km
right ascension of ascending node: 171.1574°
argument of perigee: 167.0940°
revolutions per day: 15.70851998
mean anomaly at epoch: 284.3076°
orbit number at epoch: 7559

The dashed part of the orbit path shows where the satellite is in the earth's shadow,  

DLR